Temp
-7 -7 -6 -7 -6 -5 -8 -6 -7 -5 -5 -3 -2 -2 -2 -3 -3 -3 -0 -2 -2 1 -1 -2 -2 -2 -1 -1 -1 -0 0 -0 -1 -1 -1 -2 -1 -2 -4 -4 -6 -5 -6 -6
-8 -7 -7 -8 -6 -4 -5 -6 -7 -6 -6 -4 -2 -2 -3 -2 -2 -3 -1 -0 -2 -2 -1 0 -1 -1 -1 -1 -1 -1 -1 -1 -1 -1 -2 -2 -2 -3 -3 -5 -5 -6 -7 -7
-9 -8 -9 -9 -5 -5 -6 -6 -6 -6 -5 -5 -4 -3 -2 -2 -2 -2 -1 -0 -2 -1 -0 -1 -1 -2 -1 -1 -1 -2 -2 -2 -2 -2 -2 -3 -3 -3 -3 -5 -7 -7 -7 -5
-10 -10 -13 -7 -7 -7 -7 -6 -6 -7 -7 -6 -6 -5 -4 -4 -4 -3 -2 -2 -2 -1 0 -1 -0 -1 -1 -2 -1 -2 -2 -2 -2 -2 -2 -3 -3 -4 -4 -5 -7 -7 -6 -5
-11 -10 -9 -8 -8 -8 -8 -7 -7 -7 -7 -7 -6 -5 -4 -4 -4 -4 -4 -3 -3 -1 -1 -1 -1 -1 -2 -2 -1 -1 -2 -2 -3 -3 -3 -3 -4 -4 -4 -5 -7 -7 -6 -6
-11 -11 -11 -8 -8 -8 -8 -8 -8 -7 -7 -7 -6 -6 -5 -4 -5 -4 -5 -3 -3 -2 -1 -1 -1 -1 -2 -2 -2 -2 -3 -3 -3 -3 -4 -4 -4 -4 -4 -5 -6 -7 -7 -6
-11 -11 -10 -9 -9 -9 -9 -8 -8 -8 -7 -7 -7 -7 -6 -6 -5 -5 -5 -4 -4 -3 -2 -2 -2 -2 -1 -2 -2 -2 -2 -2 -3 -2 -3 -4 -5 -4 -5 -4 -5 -7 -7 -6
-11 -11 -11 -8 -9 -9 -9 -9 -9 -8 -9 -9 -7 -7 -6 -6 -6 -5 -4 -5 -5 -3 -3 -4 -3 -2 -2 -2 -2 -2 -2 -2 -3 -3 -4 -5 -5 -5 -5 -5 -6 -7 -7 -6
-9 -8 -8 -8 -9 -8 -8 -8 -9 -9 -9 -8 -7 -7 -7 -6 -5 -4 -5 -5 -5 -5 -5 -5 -4 -3 -2 -2 -2 -2 -2 -2 -3 -4 -5 -5 -6 -6 -6 -6 -7 -7 -7 -6
-10 -8 -8 -8 -9 -9 -8 -8 -8 -9 -8 -8 -7 -7 -7 -6 -5 -5 -5 -5 -5 -5 -5 -4 -3 -2 -2 -3 -2 -2 -2 -3 -3 -3 -4 -5 -5 -6 -6 -6 -7 -7 -7 -6
-10 -8 -8 -9 -9 -9 -8 -8 -8 -9 -8 -7 -6 -7 -7 -6 -6 -6 -5 -5 -5 -5 -5 -4 -3 -3 -3 -3 -2 -2 -2 -3 -3 -4 -5 -5 -5 -6 -6 -7 -8 -7 -7 -7
-9 -9 -10 -9 -9 -9 -8 -8 -8 -8 -7 -7 -7 -6 -7 -7 -6 -6 -6 -5 -5 -5 -5 -4 -3 -3 -3 -3 -3 -3 -3 -3 -4 -6 -5 -6 -6 -6 -7 -7 -9 -8 -8 -8
-10 -10 -11 -10 -9 -8 -9 -8 -8 -8 -7 -7 -7 -7 -7 -7 -6 -6 -6 -5 -6 -6 -5 -4 -4 -4 -4 -3 -3 -4 -4 -5 -5 -6 -6 -6 -7 -7 -8 -8 -9 -8 -8 -7
-11 -11 -11 -10 -9 -9 -9 -8 -9 -8 -7 -7 -7 -7 -7 -7 -7 -6 -6 -6 -6 -5 -5 -4 -4 -4 -4 -4 -4 -5 -5 -4 -4 -6 -6 -6 -7 -8 -8 -9 -8 -8 -8 -8
-11 -11 -10 -9 -9 -9 -9 -8 -8 -8 -8 -7 -7 -7 -7 -7 -7 -7 -6 -6 -6 -5 -5 -5 -5 -5 -5 -5 -6 -6 -6 -6 -6 -6 -7 -7 -8 -8 -9 -9 -9 -9 -9 -9
-11 -11 -10 -10 -9 -9 -9 -9 -8 -8 -8 -8 -7 -7 -7 -8 -8 -7 -7 -6 -6 -6 -7 -6 -6 -6 -6 -7 -6 -7 -7 -7 -7 -7 -7 -7 -7 -7 -8 -8 -9 -8 -8 -9
-11 -10 -10 -9 -9 -9 -9 -8 -8 -8 -8 -8 -7 -7 -7 -7 -7 -8 -7 -6 -6 -6 -6 -7 -7 -7 -7 -7 -7 -7 -8 -8 -8 -8 -8 -8 -8 -8 -8 -8 -8 -9 -9 -9
-10 -10 -10 -9 -9 -9 -9 -8 -8 -8 -7 -7 -7 -7 -7 -7 -7 -7 -8 -8 -7 -7 -7 -7 -8 -8 -8 -8 -8 -8 -8 -8 -8 -8 -8 -8 -8 -9 -9 -9 -9 -9 -9 -9
-10 -10 -9 -9 -9 -9 -8 -8 -7 -7 -7 -7 -7 -7 -7 -7 -7 -7 -7 -8 -7 -7 -7 -7 -8 -8 -8 -8 -8 -8 -8 -8 -8 -8 -8 -8 -8 -9 -9 -9 -9 -10 -10 -10
-9 -9 -9 -9 -8 -8 -8 -7 -7 -7 -7 -7 -7 -7 -7 -7 -7 -7 -7 -8 -8 -8 -8 -8 -7 -7 -7 -8 -8 -8 -8 -8 -9 -9 -9 -9 -9 -9 -10 -10 -10 -10 -10 -11
-9 -8 -8 -8 -8 -8 -8 -7 -7 -7 -7 -7 -6 -6 -6 -7 -7 -8 -8 -8 -8 -8 -8 -8 -8 -8 -8 -8 -8 -9 -8 -9 -9 -9 -9 -9 -10 -10 -10 -11 -11 -11 -12 -12
-8 -8 -8 -8 -8 -8 -7 -7 -7 -7 -7 -7 -7 -7 -7 -7 -7 -8 -8 -8 -8 -8 -9 -9 -9 -9 -8 -8 -9 -9 -9 -9 -10 -10 -10 -10 -11 -11 -12 -12 -12 -12 -13 -13
-8 -8 -8 -7 -7 -7 -7 -7 -7 -7 -8 -7 -8 -8 -8 -8 -8 -8 -9 -9 -9 -10 -11 -10 -11 -10 -9 -10 -10 -10 -10 -10 -10 -11 -11 -11 -11 -12 -12 -12 -12 -13 -13 -13
-9 -8 -8 -8 -8 -8 -8 -9 -9 -9 -9 -9 -9 -9 -9 -9 -10 -10 -10 -10 -10 -10 -10 -10 -10 -10 -10 -10 -11 -11 -11 -11 -11 -11 -11 -12 -12 -12 -12 -12 -13 -13 -14 -14
-8 -8 -9 -9 -9 -10 -10 -10 -9 -9 -9 -9 -9 -9 -10 -10 -11 -11 -11 -10 -10 -10 -10 -11 -11 -11 -11 -11 -12 -12 -12 -12 -12 -12 -12 -12 -12 -12 -13 -13 -13 -14 -14 -15
-9 -9 -9 -10 -10 -10 -10 -10 -10 -10 -10 -10 -10 -10 -10 -10 -11 -11 -11 -11 -11 -11 -11 -11 -11 -12 -12 -12 -12 -12 -12 -12 -12 -12 -13 -13 -13 -13 -14 -14 -14 -15 -15 -16
-10 -10 -10 -10 -10 -10 -10 -10 -10 -10 -11 -11 -11 -11 -11 -11 -11 -12 -12 -12 -12 -12 -12 -12 -12 -12 -12 -12 -12 -12 -13 -13 -13 -13 -13 -14 -14 -14 -15 -15 -15 -16 -16 -17
Height
3009 3009 3005 3003 3002 2990 2995 2989 2991 2978 2973 2970 2964 2961 2957 2951 2947 2945 2936 2933 2937 2933 2930 2922 2923 2925 2925 2929 2931 2932 2937 2940 2943 2949 2953 2953 2959 2964 2969 2975 2985 2991 2992 2998
3001 2999 2998 2997 2993 2983 2984 2981 2977 2971 2962 2964 2960 2954 2951 2945 2942 2937 2928 2925 2930 2928 2926 2927 2925 2925 2927 2928 2929 2930 2935 2937 2942 2946 2950 2953 2956 2960 2964 2972 2980 2985 2989 2994
2993 2992 2990 2987 2982 2978 2974 2973 2971 2962 2959 2955 2952 2948 2941 2937 2935 2926 2922 2922 2925 2923 2919 2922 2921 2925 2929 2929 2927 2930 2932 2935 2941 2944 2947 2950 2954 2958 2964 2968 2973 2979 2986 2989
2989 2986 2990 2975 2977 2973 2969 2961 2956 2952 2951 2949 2947 2941 2938 2936 2929 2920 2917 2922 2921 2915 2913 2914 2915 2920 2923 2924 2926 2928 2929 2932 2936 2939 2943 2947 2950 2953 2956 2961 2967 2973 2979 2985
2985 2982 2977 2973 2970 2966 2962 2957 2951 2947 2945 2941 2938 2932 2930 2931 2926 2917 2917 2917 2915 2910 2908 2909 2909 2914 2920 2922 2923 2925 2927 2929 2934 2935 2938 2941 2944 2946 2949 2955 2960 2967 2972 2979
2980 2979 2974 2967 2965 2962 2957 2950 2947 2943 2940 2936 2932 2924 2918 2919 2918 2918 2913 2907 2907 2903 2904 2903 2904 2908 2914 2918 2920 2920 2921 2925 2929 2929 2931 2935 2940 2942 2945 2951 2954 2961 2968 2973
2972 2974 2967 2961 2960 2958 2955 2949 2941 2938 2935 2931 2926 2922 2912 2911 2911 2909 2904 2902 2896 2897 2893 2899 2903 2904 2909 2912 2914 2914 2915 2920 2926 2926 2927 2931 2936 2939 2942 2946 2950 2957 2962 2966
2968 2968 2962 2956 2956 2955 2951 2942 2938 2934 2930 2923 2917 2909 2908 2905 2901 2899 2897 2893 2890 2889 2888 2891 2895 2898 2903 2906 2909 2910 2912 2918 2923 2924 2925 2926 2931 2936 2938 2941 2944 2951 2956 2960
2960 2955 2953 2951 2949 2947 2943 2939 2934 2929 2926 2920 2911 2908 2904 2899 2893 2892 2894 2894 2892 2891 2883 2885 2894 2897 2899 2902 2904 2906 2911 2913 2917 2921 2923 2923 2926 2930 2934 2936 2939 2945 2950 2954
2952 2947 2945 2943 2941 2940 2937 2933 2929 2925 2920 2915 2907 2906 2902 2895 2889 2889 2890 2889 2888 2886 2886 2889 2891 2892 2896 2899 2901 2902 2906 2906 2911 2915 2916 2919 2921 2924 2928 2931 2935 2941 2946 2949
2941 2939 2936 2935 2933 2931 2929 2926 2923 2919 2915 2910 2905 2904 2900 2893 2889 2887 2886 2885 2883 2884 2884 2885 2888 2889 2893 2893 2895 2898 2900 2903 2906 2910 2910 2912 2916 2919 2922 2927 2932 2939 2942 2945
2927 2929 2928 2924 2924 2924 2921 2919 2916 2912 2909 2907 2903 2902 2899 2894 2889 2886 2883 2882 2883 2883 2883 2884 2885 2887 2889 2891 2894 2895 2895 2899 2902 2904 2905 2907 2910 2913 2916 2921 2927 2933 2937 2938
2915 2917 2916 2913 2914 2915 2913 2912 2910 2906 2905 2903 2901 2900 2898 2894 2890 2885 2881 2878 2878 2879 2880 2881 2882 2884 2887 2889 2890 2891 2892 2896 2896 2898 2900 2902 2903 2905 2909 2914 2920 2924 2929 2931
2903 2903 2901 2902 2904 2906 2906 2906 2904 2901 2900 2897 2899 2898 2897 2894 2892 2888 2884 2881 2878 2877 2878 2879 2880 2882 2883 2884 2886 2887 2889 2890 2890 2891 2893 2895 2898 2901 2905 2910 2916 2920 2924 2927
2893 2893 2892 2896 2897 2899 2900 2901 2900 2899 2895 2898 2897 2897 2896 2893 2891 2889 2886 2884 2881 2878 2877 2878 2879 2880 2881 2882 2883 2884 2884 2884 2885 2888 2890 2892 2893 2897 2901 2906 2912 2916 2919 2923
2885 2886 2887 2888 2893 2894 2896 2897 2896 2895 2896 2896 2896 2895 2893 2892 2890 2889 2886 2884 2883 2880 2878 2877 2878 2879 2880 2881 2880 2881 2882 2882 2886 2888 2889 2891 2894 2896 2899 2904 2909 2913 2917 2920
2882 2884 2885 2887 2888 2891 2893 2892 2890 2894 2894 2893 2892 2892 2892 2890 2890 2888 2886 2884 2883 2881 2880 2879 2877 2878 2877 2878 2879 2880 2883 2885 2887 2889 2891 2890 2894 2898 2901 2905 2909 2912 2914 2917
2882 2882 2882 2883 2886 2888 2889 2889 2890 2890 2890 2890 2890 2890 2890 2889 2888 2887 2885 2883 2882 2882 2882 2881 2881 2881 2881 2880 2880 2881 2883 2886 2888 2890 2892 2895 2896 2899 2901 2904 2906 2909 2911 2913
2882 2881 2882 2882 2885 2888 2889 2889 2889 2889 2889 2889 2890 2889 2889 2888 2887 2886 2885 2884 2882 2882 2882 2882 2883 2883 2882 2882 2883 2883 2884 2887 2889 2891 2893 2895 2896 2898 2900 2902 2904 2905 2907 2908
2882 2883 2882 2885 2887 2888 2889 2889 2889 2889 2889 2889 2888 2888 2887 2886 2885 2884 2883 2883 2882 2882 2881 2880 2880 2881 2881 2881 2883 2884 2885 2887 2888 2890 2892 2894 2895 2897 2898 2899 2900 2901 2902 2903
2888 2888 2888 2888 2888 2889 2889 2889 2889 2888 2888 2888 2887 2886 2885 2884 2883 2882 2881 2880 2879 2879 2879 2879 2879 2879 2880 2880 2880 2882 2884 2886 2887 2889 2891 2892 2893 2894 2895 2896 2897 2897 2898 2898
2892 2891 2890 2890 2889 2889 2888 2888 2887 2887 2886 2885 2884 2883 2882 2881 2880 2879 2877 2876 2874 2875 2875 2876 2876 2877 2879 2880 2880 2882 2883 2884 2885 2887 2888 2889 2889 2890 2891 2891 2892 2891 2891 2891
2894 2892 2891 2891 2890 2889 2888 2887 2887 2886 2885 2884 2882 2881 2880 2878 2877 2875 2874 2872 2871 2872 2873 2873 2875 2875 2876 2877 2879 2880 2881 2882 2883 2884 2885 2886 2886 2886 2886 2886 2886 2886 2885 2885
2893 2891 2890 2889 2888 2887 2886 2885 2884 2883 2881 2880 2879 2878 2877 2875 2874 2874 2872 2871 2871 2871 2871 2872 2873 2874 2874 2876 2877 2878 2879 2880 2881 2881 2881 2881 2881 2881 2881 2881 2880 2880 2880 2880
2891 2890 2888 2887 2886 2885 2884 2882 2881 2880 2878 2877 2876 2876 2875 2874 2873 2873 2873 2872 2871 2871 2871 2871 2872 2873 2874 2875 2876 2877 2877 2877 2877 2877 2877 2877 2878 2877 2877 2877 2877 2876 2876 2875
2889 2887 2886 2885 2883 2882 2881 2880 2878 2877 2876 2876 2875 2874 2873 2873 2872 2872 2872 2872 2872 2872 2872 2872 2874 2874 2875 2875 2875 2875 2875 2875 2875 2875 2875 2875 2875 2874 2874 2874 2873 2872 2872 2871
2885 2884 2883 2882 2882 2881 2879 2877 2875 2874 2874 2874 2873 2872 2872 2871 2871 2871 2871 2872 2872 2872 2872 2873 2874 2874 2875 2875 2875 2874 2874 2874 2874 2874 2874 2873 2872 2872 2871 2870 2870 2869 2868 2868
Wind_Speed
23 26 28 30 35 33 31 37 25 43 41 39 38 30 31 28 21 26 14 18 24 17 19 17 20 15 7 3 3 5 8 9 22 26 21 22 26 30 31 32 31 31 31 35
26 29 28 29 32 34 35 35 28 29 37 31 31 35 34 31 35 32 18 19 27 26 21 16 11 14 11 6 5 4 7 6 10 11 17 18 16 24 28 32 35 32 36 37
23 22 14 16 35 30 29 31 28 28 28 33 34 31 32 30 28 30 31 27 33 28 26 17 9 9 10 7 5 7 8 11 14 18 21 16 15 17 27 35 36 38 37 31
18 20 3 25 15 25 31 34 29 24 29 34 31 28 26 31 32 33 37 36 31 25 22 15 15 14 12 10 12 10 11 11 22 24 22 20 23 22 22 32 38 44 33 36
6 10 21 33 15 13 20 24 25 26 23 25 32 39 28 24 27 31 35 35 25 19 19 21 17 17 20 15 14 11 11 15 17 16 15 17 17 17 22 30 39 38 35 36
10 6 6 20 20 28 33 33 19 22 27 31 32 32 40 28 24 25 25 32 22 15 17 16 16 17 19 18 15 13 14 14 17 17 16 16 20 19 18 25 35 34 36 33
26 12 16 22 20 26 11 14 19 17 15 30 31 31 34 23 17 15 17 20 14 24 26 20 13 14 20 21 18 15 13 13 14 13 15 18 18 20 23 22 29 35 32 34
13 10 10 13 23 23 30 31 19 18 26 38 33 20 15 17 20 19 15 15 14 16 25 22 10 14 17 18 17 17 12 12 12 11 14 16 19 21 24 22 29 37 39 34
16 19 25 27 24 27 26 32 26 31 34 37 37 15 20 25 20 21 16 13 10 6 11 6 10 13 10 12 17 17 15 14 16 15 15 14 18 20 24 23 30 33 36 34
27 30 32 32 33 32 25 25 27 31 33 36 26 17 25 25 15 14 14 11 8 3 7 8 10 10 13 16 18 18 19 18 18 19 19 17 19 23 24 25 32 33 34 28
32 37 36 33 32 29 23 27 29 30 30 32 18 14 19 19 13 7 11 14 11 11 4 9 10 15 17 17 18 18 20 22 22 22 20 18 21 24 23 24 30 28 24 23
45 38 35 37 32 26 24 25 29 29 28 29 6 10 15 18 18 13 11 10 13 13 13 14 14 15 19 20 21 22 21 24 25 21 20 17 21 22 21 25 29 26 24 24
44 39 37 38 36 26 27 25 25 25 23 21 3 8 10 14 18 19 16 13 18 16 13 12 12 14 15 19 22 23 22 23 22 21 20 23 20 19 22 25 30 30 31 24
44 41 36 30 28 23 23 22 19 21 17 3 2 7 9 10 12 11 14 13 7 6 9 10 10 12 15 17 19 18 19 20 20 18 22 22 18 16 18 23 27 26 22 21
25 17 24 21 25 18 17 15 13 7 5 4 6 6 7 9 10 11 11 11 11 6 5 6 7 10 13 15 14 16 17 18 18 17 14 11 15 15 16 20 23 22 19 19
16 19 15 21 16 14 15 15 14 1 4 7 8 7 8 8 9 11 10 10 10 14 11 3 4 9 12 11 15 16 11 12 11 14 15 11 9 11 14 14 15 13 13 14
13 15 15 11 11 13 12 15 11 7 8 10 8 8 8 7 8 9 10 9 10 12 12 14 10 4 9 8 10 13 12 10 8 6 5 10 11 11 11 12 13 14 15 15
9 11 12 11 11 10 10 4 8 9 7 5 4 5 5 5 8 9 9 8 9 10 8 9 6 4 3 3 5 6 5 7 8 6 5 6 8 9 9 11 12 14 15 16
3 7 6 11 8 6 5 5 4 2 1 2 4 3 4 5 6 7 8 8 8 9 8 5 5 6 5 4 3 4 5 4 5 6 8 8 8 9 12 13 15 16 16 17
9 13 12 11 8 5 4 2 1 2 4 5 5 7 8 10 10 10 10 11 12 11 12 10 6 9 10 13 11 7 5 5 6 7 9 10 11 13 14 16 17 18 18 19
12 11 10 9 6 3 2 2 3 5 8 9 10 12 14 15 15 14 14 13 14 13 13 12 6 6 4 2 10 8 10 8 9 10 12 13 12 14 14 14 15 17 18 18
7 6 6 5 5 6 6 7 9 10 12 12 12 13 14 15 15 14 14 14 12 13 12 12 9 8 7 6 6 8 7 5 5 9 12 12 11 12 12 13 14 16 17 17
6 6 6 7 8 9 11 13 14 15 14 13 12 11 12 12 12 11 12 10 8 5 6 8 8 7 6 5 6 7 7 7 8 9 10 10 11 11 12 13 15 15 16 17
12 12 11 11 11 12 11 11 10 10 10 10 11 11 11 10 9 8 7 5 3 4 6 7 7 7 7 6 6 5 4 6 8 9 9 10 11 12 13 14 15 15 16 16
16 15 14 10 9 10 10 10 11 10 9 10 10 11 11 11 9 7 5 3 1 2 2 3 4 5 6 2 2 4 5 6 7 9 10 11 12 13 13 14 14 15 15 16
15 14 13 12 11 12 11 10 10 10 9 9 7 6 7 8 8 7 6 4 3 3 3 3 2 2 3 5 5 6 7 8 9 10 11 11 12 12 13 13 14 14 15 15
13 12 10 9 8 10 13 14 11 9 8 8 9 6 5 5 5 4 4 5 5 4 3 3 3 3 4 5 6 7 9 10 10 11 11 11 12 12 12 13 14 14 15 15
Wind_Direction
276 283 288 287 289 292 274 275 256 276 276 295 313 300 304 303 292 290 286 318 296 317 326 338 340 324 341 277 257 293 251 206 189 217 240 249 240 228 207 211 211 225 211 212
272 282 285 284 279 284 289 288 280 287 283 290 291 304 303 298 297 297 286 276 297 280 269 280 316 323 307 283 253 224 238 252 245 212 240 233 223 214 213 207 213 218 213 216
270 285 295 280 285 292 284 284 292 283 289 286 290 295 308 308 292 284 289 284 294 286 258 244 241 260 257 256 246 227 209 204 234 244 240 242 236 226 224 211 213 217 223 210
271 293 252 286 291 290 279 291 297 284 272 275 285 286 293 307 305 301 293 286 291 285 252 239 250 242 240 250 254 245 219 222 215 219 228 230 230 230 232 220 214 220 221 223
239 255 280 291 280 322 307 295 296 289 283 281 282 284 279 285 291 288 287 288 295 272 240 246 228 244 231 230 230 239 244 238 232 231 237 232 236 246 235 227 221 221 223 231
232 244 257 276 279 307 302 278 275 285 303 299 303 299 285 285 289 287 282 288 272 244 224 227 220 213 224 223 225 236 252 247 246 244 248 263 267 257 259 248 235 221 227 238
244 246 270 275 284 299 289 292 307 300 304 312 299 299 286 298 291 283 293 306 276 240 205 202 210 219 221 227 227 236 231 230 230 229 241 250 252 263 251 258 247 226 230 237
229 229 267 304 309 308 314 319 308 314 313 315 309 325 310 292 293 288 292 305 340 260 204 170 180 203 203 216 222 214 206 218 233 254 239 238 249 259 253 255 237 226 226 246
229 257 283 303 307 302 298 301 304 303 310 307 314 330 322 323 290 285 270 282 291 309 124 129 198 207 209 206 197 203 221 232 233 244 252 251 241 255 253 250 231 228 236 230
263 281 291 295 305 309 295 292 295 294 299 310 325 330 330 330 299 264 251 252 239 244 303 272 229 211 219 222 226 232 238 238 244 252 260 263 255 258 252 248 230 227 231 231
269 285 293 294 294 295 285 283 286 289 295 306 305 328 339 350 339 307 279 269 283 292 292 275 253 234 236 226 227 233 237 241 243 247 260 265 265 260 258 257 234 234 229 227
278 291 287 286 283 284 272 275 280 288 292 306 311 317 336 350 354 321 287 268 259 260 264 251 246 243 243 243 239 231 228 235 242 245 252 254 261 250 244 250 229 227 221 208
287 290 284 279 267 267 272 273 279 286 295 286 277 323 340 351 349 350 349 305 269 267 253 246 248 256 267 255 251 248 240 246 247 239 243 255 255 245 239 227 213 216 223 224
283 275 270 257 258 255 263 274 282 292 283 172 360 334 336 351 350 358 7 3 354 317 278 244 246 254 255 248 246 249 249 252 251 241 245 245 231 223 221 217 220 223 228 216
290 270 262 264 241 251 262 258 271 298 72 333 306 312 315 335 337 339 356 17 17 338 276 240 239 246 249 247 245 246 244 241 231 217 206 200 197 193 193 207 218 220 218 208
266 240 250 239 240 247 249 243 256 258 305 290 284 283 291 307 324 321 330 345 355 19 21 348 257 254 245 235 222 206 212 199 197 198 184 169 164 164 164 176 187 195 215 230
224 234 242 239 243 253 236 242 249 249 277 283 280 265 266 281 289 297 321 334 342 352 8 7 32 330 215 207 188 183 186 187 177 165 180 169 175 187 190 199 214 225 233 243
246 240 231 239 250 245 235 254 268 284 285 270 259 242 245 275 290 298 308 333 347 352 11 356 349 46 67 120 149 164 184 205 198 179 180 211 207 203 211 224 230 239 244 250
229 266 239 241 203 192 252 254 266 276 261 228 218 228 246 266 288 301 304 318 338 339 328 297 296 261 244 230 199 166 160 176 205 219 226 232 233 236 238 240 246 250 255 260
65 91 90 118 129 124 107 99 57 336 306 296 295 286 285 282 279 280 290 295 307 312 313 316 309 264 306 245 231 206 205 206 219 233 234 234 238 245 247 249 252 257 260 259
74 80 79 86 89 78 61 29 336 319 308 302 301 298 296 293 285 277 270 274 282 286 290 293 289 266 273 230 186 203 210 216 222 236 243 236 248 250 248 250 254 258 259 261
32 26 17 6 348 330 315 302 295 294 291 292 294 294 296 294 289 286 284 279 274 275 275 277 268 255 239 223 215 212 219 235 248 248 254 259 257 256 258 260 262 263 266 270
357 346 335 317 303 295 289 288 286 286 286 286 286 292 295 297 299 305 310 300 295 262 258 253 251 254 264 234 233 234 244 256 260 255 259 267 269 270 268 267 268 270 272 275
353 348 342 333 321 307 298 293 291 291 295 299 301 302 305 308 314 319 324 305 281 242 243 243 240 255 249 233 214 208 229 257 266 270 276 279 279 279 278 278 279 281 280 279
334 331 325 320 313 308 305 303 302 301 300 297 296 299 301 301 300 302 306 328 265 229 208 209 191 172 157 166 262 274 277 283 291 296 296 293 290 287 285 284 282 281 282 282
315 318 322 317 309 309 310 316 310 291 287 280 273 284 295 297 283 273 258 247 227 174 154 148 170 216 268 286 291 298 300 300 299 295 292 291 291 290 289 289 287 286 284 282
312 310 318 319 318 315 315 313 308 307 291 280 286 293 303 292 275 261 243 231 219 214 218 225 236 251 269 281 288 293 298 300 299 298 296 295 294 292 292 291 289 288 287 286